Theta_e
322 321 322 323 322 321 322 322 323 323 323 323 323 324 324 324 324 324 324 324 325 324 324 325 325 325 325 326 326 326 326 324 323 321 319 320 317 313 311 310 311 310 309 313 316 314 312 313 314 314 314 316 319 320 320 320 320 321 322 321 317 318 317 317 318 316 317 318 317 317 317 317 317 315 314 314 314 316 316 317 319 319 322 325 326 333 338 337
321 321 322 322 322 321 321 322 322 323 323 323 323 323 323 324 323 324 324 324 324 324 324 324 325 325 325 326 326 326 325 321 319 318 321 321 317 312 309 308 310 310 310 314 316 314 313 313 314 314 314 317 319 319 320 320 320 321 322 321 319 320 318 317 318 316 317 317 317 317 317 318 316 316 315 315 315 315 315 316 317 318 322 325 328 334 337 336
322 321 322 322 321 321 320 321 322 322 323 322 323 323 323 323 323 323 323 323 323 323 323 322 323 324 325 325 324 326 323 317 315 317 321 320 317 314 311 309 308 310 311 314 315 314 315 314 314 313 314 317 318 319 319 319 319 321 322 322 321 320 317 317 316 316 316 316 316 316 317 317 316 316 315 316 316 315 315 317 316 318 322 324 330 336 336 336
322 321 322 321 321 320 320 320 320 321 322 322 322 322 322 322 322 322 322 323 322 321 321 320 321 323 325 324 324 324 318 315 315 316 320 319 317 316 313 310 308 310 312 314 315 314 315 315 315 313 316 317 317 318 319 319 319 319 320 320 320 318 317 316 315 314 314 315 316 316 316 316 315 315 315 316 316 315 316 317 316 316 320 324 329 335 336 337
322 321 321 321 320 320 320 319 320 320 321 322 321 321 322 321 321 321 321 322 321 321 319 317 318 320 322 324 324 320 317 322 320 315 318 317 316 315 313 311 308 310 314 314 315 315 314 315 314 313 316 317 316 318 318 318 318 318 317 317 317 317 317 315 313 313 312 314 316 316 315 315 315 315 315 315 316 315 315 316 316 316 319 324 328 335 337 337
322 321 321 320 320 320 319 319 319 319 320 321 321 321 320 320 320 320 321 321 321 320 319 316 315 316 319 320 319 314 321 329 319 311 315 313 313 311 311 311 308 311 314 314 314 314 314 314 313 314 316 317 316 318 318 317 317 318 317 316 316 316 316 314 313 311 311 314 316 316 315 315 315 315 316 315 316 315 313 314 314 314 320 326 329 334 336 337
321 321 320 319 319 319 319 319 318 319 320 321 320 320 320 319 320 320 321 321 320 320 319 317 313 312 314 314 313 312 321 327 316 311 313 312 312 310 310 310 309 313 314 314 314 314 314 313 313 314 316 316 316 317 317 316 317 318 317 315 315 314 314 313 312 310 311 314 314 314 314 315 315 315 314 314 315 314 312 314 313 313 321 327 328 332 334 336
320 320 320 318 318 318 319 318 317 319 320 320 320 319 319 319 319 319 319 320 319 318 318 316 312 309 309 311 313 313 316 320 317 314 313 314 313 310 312 312 312 314 315 315 314 314 314 313 313 314 316 316 317 316 316 316 316 318 317 316 314 314 313 311 311 310 312 313 312 313 314 315 314 313 313 314 315 313 312 315 315 316 321 325 326 328 331 334
320 320 319 318 318 319 318 318 318 319 320 320 319 319 319 318 318 318 319 320 319 318 318 316 313 311 312 314 314 314 315 316 315 313 314 317 313 312 314 314 315 315 315 316 314 314 314 313 313 314 316 316 317 316 316 316 316 317 317 315 315 313 312 311 312 311 312 312 312 314 315 314 312 311 314 314 314 311 312 315 316 318 320 322 325 327 329 332
320 319 319 319 319 319 319 318 319 319 319 319 319 318 318 318 318 318 318 318 317 317 317 317 316 315 316 317 313 312 314 313 313 313 314 316 314 313 316 315 315 315 315 315 313 314 314 313 313 314 315 316 316 316 316 316 316 317 316 315 315 313 313 312 313 312 313 313 312 314 315 314 312 312 314 314 312 311 313 316 317 318 319 321 323 327 330 332
319 318 318 319 318 318 318 318 319 319 318 318 318 318 318 317 317 317 317 317 316 316 317 317 317 316 317 317 312 310 313 313 312 312 314 316 313 313 315 314 314 315 315 314 313 313 313 313 314 314 314 315 316 315 315 315 315 316 315 315 314 314 313 313 314 313 314 314 312 314 315 314 312 313 315 313 310 311 313 316 317 318 319 321 322 326 330 331
319 319 318 318 318 318 318 318 318 318 318 318 318 317 317 317 316 316 316 315 316 316 317 317 316 316 316 314 311 311 314 314 311 312 314 315 313 314 315 313 313 315 315 314 313 312 313 314 314 313 313 314 315 314 314 313 315 315 315 315 314 314 315 314 314 313 314 314 312 313 313 313 314 313 314 312 310 312 313 315 317 317 319 322 324 326 328 330
318 318 318 318 317 317 317 317 317 318 317 317 317 317 316 316 315 315 315 315 316 316 316 317 316 316 316 310 310 312 314 314 313 313 314 314 313 313 313 312 312 313 314 314 314 313 313 313 313 313 313 314 314 313 313 313 315 315 315 316 315 315 315 314 314 313 314 313 311 312 310 312 316 315 313 311 311 312 312 314 316 317 318 320 323 325 327 330
318 318 318 317 317 316 316 316 317 317 317 316 316 315 315 315 315 315 315 315 316 316 316 316 316 316 314 309 310 312 314 314 313 313 313 313 311 311 311 311 312 312 313 313 314 314 312 311 312 312 313 314 313 312 313 313 314 315 315 315 315 313 313 314 314 313 315 312 311 313 310 311 315 314 312 311 311 312 313 314 314 316 317 318 321 323 325 328
318 318 317 317 316 316 315 315 316 317 316 315 315 314 314 314 315 314 315 315 315 316 316 316 317 316 311 308 311 313 313 313 312 312 312 313 312 311 312 312 311 312 312 312 313 312 311 311 312 312 312 312 312 313 314 314 314 315 313 312 315 313 313 315 314 313 315 313 312 313 310 312 315 313 311 311 311 312 313 314 314 314 315 316 318 320 322 325
318 317 316 316 315 315 315 315 315 316 315 314 314 314 314 314 314 314 314 315 316 316 315 316 317 316 309 309 313 313 313 313 313 312 311 313 314 313 312 312 312 312 311 311 311 311 311 312 312 313 313 312 314 314 314 313 313 315 313 311 314 313 313 314 313 313 315 314 313 312 312 314 315 313 312 311 312 313 313 313 314 314 314 314 315 316 318 319
317 316 315 315 315 315 315 315 315 315 314 314 314 314 314 313 314 314 315 315 315 315 315 316 316 314 309 310 314 314 314 314 313 312 311 313 314 313 313 313 313 313 311 311 311 312 312 312 312 313 313 313 314 314 313 311 311 313 313 313 315 314 312 313 313 314 314 314 314 313 313 314 315 315 313 312 313 313 313 314 314 314 315 315 315 315 315 316
316 315 315 315 315 315 314 314 315 314 314 314 314 313 313 313 314 314 315 315 314 313 314 314 313 311 308 309 312 314 314 313 312 312 311 312 313 313 313 313 313 313 311 311 312 312 312 312 312 312 313 313 313 314 312 312 312 312 312 313 314 313 312 312 313 314 313 314 314 314 314 314 315 315 314 314 313 313 314 314 314 315 315 315 316 315 315 315
314 314 314 315 315 314 314 314 314 314 314 313 313 313 313 314 314 315 315 315 313 311 311 312 311 310 309 309 311 314 314 312 312 312 312 312 312 313 314 314 313 312 311 311 312 311 312 313 313 313 313 312 313 314 313 315 315 314 313 313 313 312 312 313 314 312 313 314 314 314 314 314 314 314 315 315 314 314 314 314 315 316 315 315 316 316 317 317
313 314 314 315 314 314 314 314 313 313 313 313 313 313 314 315 314 313 314 315 312 309 310 310 310 309 309 311 312 312 312 313 313 312 312 312 312 313 313 313 313 312 311 312 312 313 313 314 313 314 313 313 314 314 314 315 315 316 315 313 313 312 311 313 314 312 312 314 314 314 314 315 315 314 315 315 315 315 315 315 315 316 316 316 317 317 318 317
314 314 315 314 314 314 314 313 313 313 313 313 314 314 313 313 312 311 312 312 310 309 309 310 310 310 311 312 312 312 313 313 313 313 312 312 312 313 313 313 313 311 311 312 313 313 313 314 314 314 314 313 314 313 313 313 315 316 314 312 312 312 312 313 314 312 311 313 314 315 315 315 315 315 315 315 316 316 315 315 316 316 317 317 318 318 318 318
314 314 314 314 313 313 313 313 313 312 312 313 315 314 312 311 311 311 311 309 309 310 310 310 310 311 312 312 312 312 313 313 313 313 312 311 312 313 312 313 311 311 313 313 314 313 313 314 314 313 314 313 313 313 312 313 314 314 314 312 311 312 313 313 313 312 311 311 313 316 315 315 315 315 316 316 316 317 316 315 315 316 316 316 316 317 317 317
314 314 314 313 313 313 313 313 312 312 312 314 316 315 313 311 310 310 310 309 309 310 310 310 310 311 311 311 312 312 313 313 314 313 312 312 313 313 313 312 311 312 313 313 314 313 312 313 313 312 313 312 312 312 312 313 313 314 314 311 311 314 312 311 312 313 312 311 312 315 314 315 315 315 316 314 313 314 313 312 312 312 313 314 315 316 315 315
313 313 313 313 313 312 312 312 311 311 313 314 316 315 312 311 310 310 310 310 309 309 309 309 311 312 311 312 312 312 312 313 313 313 312 312 313 312 313 312 311 312 312 312 313 312 313 311 309 311 313 313 312 312 313 312 312 316 317 313 313 315 313 313 314 313 312 311 312 314 312 312 314 314 315 313 310 311 311 311 313 313 313 314 315 316 316 315
313 313 313 312 312 312 311 311 311 312 313 314 315 315 312 310 310 312 312 310 310 309 308 310 313 313 312 312 312 311 312 312 312 313 312 312 313 312 312 312 312 312 312 312 311 312 313 308 307 311 312 313 312 312 313 312 311 313 317 316 314 313 314 315 315 313 312 312 313 313 308 308 313 315 314 313 311 312 313 313 315 315 315 315 316 317 317 317
313 312 312 311 311 311 311 311 312 312 313 314 315 314 312 310 309 312 312 310 310 310 309 310 313 313 312 312 311 311 313 313 311 312 312 312 312 311 312 312 312 312 312 312 312 313 311 306 308 312 312 314 314 312 314 315 310 310 315 315 313 314 315 315 315 314 312 311 312 312 309 308 311 313 314 313 312 313 314 315 315 315 315 316 316 316 317 317
312 312 311 310 311 311 311 312 312 312 313 313 314 313 311 311 309 310 312 311 311 311 309 308 309 312 312 311 311 311 314 313 311 311 312 311 311 311 312 312 311 311 312 312 312 312 309 308 311 313 313 315 314 313 315 315 311 314 316 315 312 314 316 316 316 314 314 313 312 313 314 310 309 311 313 313 312 314 315 315 315 315 315 315 316 316 316 316
312 311 311 310 311 311 311 312 312 313 313 313 313 312 311 310 309 309 310 311 312 310 309 307 307 311 311 310 310 311 312 313 314 313 310 310 311 311 312 313 312 311 311 311 312 312 311 311 313 314 314 314 313 314 316 315 313 315 316 316 315 316 316 317 316 314 315 314 311 314 315 310 308 311 312 312 312 313 315 315 316 315 315 315 315 315 315 315
311 310 311 310 310 311 313 313 312 313 313 311 311 311 310 309 309 309 309 311 312 309 308 308 308 310 311 309 310 311 312 313 314 312 310 310 311 311 312 313 311 311 311 313 314 314 312 311 312 314 315 315 313 312 315 318 315 313 314 316 318 318 318 318 316 314 315 312 311 315 314 310 308 310 312 311 311 313 315 315 315 315 315 315 315 315 315 315
310 310 310 310 311 312 313 312 313 313 311 309 310 310 310 309 308 308 309 311 311 308 308 309 310 311 310 310 311 312 313 312 312 311 311 311 311 310 311 312 312 312 314 316 315 313 310 308 311 314 313 312 310 310 313 317 315 313 316 316 316 316 316 316 314 313 312 312 313 313 313 311 308 308 312 312 310 313 316 315 314 314 314 314 314 315 314 314
310 310 309 310 311 312 312 312 313 313 310 309 310 311 310 309 308 308 309 311 311 309 308 309 311 311 311 311 312 312 313 312 311 311 312 312 312 311 312 313 313 314 315 316 315 314 311 310 312 312 309 310 312 311 312 314 314 316 318 316 315 315 314 313 313 313 312 312 311 310 311 312 309 308 312 312 310 313 315 314 315 315 315 314 314 314 314 314
310 310 309 310 312 312 313 313 313 312 310 310 311 311 309 308 308 309 310 310 310 309 309 311 312 311 311 312 313 313 314 313 313 313 313 312 312 312 313 313 314 314 313 313 316 316 315 314 314 312 309 310 314 313 312 313 315 317 316 313 313 314 314 314 313 313 312 311 309 309 311 312 310 309 311 311 311 313 315 315 315 315 315 315 314 313 313 314
309 309 310 311 311 312 314 313 312 310 310 312 312 311 308 309 309 309 309 309 311 311 310 311 312 311 312 313 314 314 314 314 313 313 313 314 314 314 314 314 314 315 314 314 316 317 316 315 315 314 311 310 313 314 313 313 314 315 315 312 312 313 314 315 314 312 312 310 308 309 312 311 310 310 312 312 312 312 313 314 315 315 315 314 314 313 313 313
309 309 310 311 311 313 313 312 310 311 311 313 312 310 310 310 310 310 310 310 311 311 311 312 312 311 312 313 314 313 314 314 313 313 314 314 314 315 315 313 314 316 316 315 316 316 316 315 314 315 314 311 313 314 313 314 314 316 317 314 312 313 313 313 313 313 313 312 309 309 311 310 309 310 311 311 311 310 310 311 312 313 313 313 313 313 313 313
309 309 311 312 311 313 314 311 309 311 312 313 311 309 311 311 310 310 311 311 310 311 312 312 312 312 313 314 314 312 313 314 313 313 315 315 314 315 315 313 313 315 316 315 315 315 316 315 313 313 312 311 313 314 313 315 316 315 317 316 313 313 312 311 311 312 312 312 311 310 310 311 311 311 309 310 310 309 309 310 311 311 312 312 312 313 312 312
310 310 312 312 311 313 314 310 309 312 313 312 310 310 310 311 311 311 311 311 310 311 312 313 313 314 314 314 314 312 313 314 314 314 315 315 315 315 315 314 313 314 314 315 316 315 314 315 313 312 311 310 311 312 311 312 316 314 314 314 312 312 313 311 309 309 309 311 312 311 311 311 311 311 310 310 310 309 309 310 311 311 312 313 314 314 313 313
310 311 312 312 312 314 314 310 310 313 313 311 310 310 312 312 312 313 311 310 311 312 313 314 314 314 314 314 314 313 313 314 314 315 315 315 315 315 314 314 314 314 314 314 316 315 314 314 313 313 314 311 309 311 311 311 313 314 314 314 310 311 312 310 310 310 309 310 310 311 310 309 309 310 311 310 310 309 309 311 312 312 312 313 314 314 313 313
311 312 313 312 312 314 313 311 312 313 312 312 311 311 313 313 312 313 312 311 312 312 313 314 314 314 314 313 314 313 314 315 314 315 316 315 315 315 314 314 314 313 313 312 314 317 316 316 314 312 314 312 310 312 312 311 312 312 313 314 312 312 312 309 310 312 311 311 310 309 309 308 309 310 311 311 311 310 309 311 312 312 313 314 314 314 312 311
312 314 314 311 312 314 313 312 313 312 312 313 312 311 315 315 313 313 313 311 312 313 313 314 314 314 314 314 314 314 313 314 314 315 316 314 314 314 314 315 314 313 312 311 313 317 316 317 316 312 312 313 312 313 314 313 312 310 311 312 313 314 312 310 311 310 310 311 310 310 309 309 311 312 312 311 311 311 310 311 312 312 313 314 314 313 312 312
313 314 313 310 312 314 313 312 313 312 312 312 312 313 316 315 313 312 313 314 313 312 313 315 313 313 315 315 314 314 314 315 314 314 315 314 313 313 312 313 314 312 311 311 313 316 313 314 317 313 312 313 313 314 315 315 313 311 311 311 312 313 311 311 312 310 310 310 310 311 310 308 310 312 312 313 313 312 311 311 313 313 313 314 313 313 313 312
313 315 312 309 312 313 312 313 313 312 312 312 312 314 316 315 313 312 313 314 313 310 311 315 314 313 316 316 314 314 314 315 315 315 315 314 312 312 312 313 313 311 311 311 313 315 312 313 317 314 313 314 314 312 311 312 313 313 313 313 313 312 312 313 313 311 309 309 309 310 310 309 309 310 311 312 312 313 312 312 313 314 313 314 313 313 313 312
313 314 311 309 312 313 313 313 313 313 313 313 313 314 315 314 312 312 313 313 313 312 311 314 315 315 316 315 315 314 314 315 316 315 315 314 313 313 314 313 312 311 312 313 315 317 316 315 316 315 314 314 312 309 307 308 311 312 312 313 314 313 312 313 314 312 310 308 308 309 310 310 309 307 307 309 309 312 313 313 313 314 313 314 314 313 313 312
312 311 308 308 311 313 314 314 314 314 314 312 313 314 314 314 313 312 313 313 314 313 312 314 314 313 315 315 315 315 313 315 316 315 315 315 313 313 314 312 311 311 312 314 315 316 316 316 316 315 314 313 311 310 308 308 310 313 313 313 313 315 315 313 312 312 311 310 309 309 311 312 309 307 307 307 306 308 311 313 314 314 314 313 313 312 312 311
308 309 308 308 310 312 314 315 314 314 314 312 313 314 313 314 314 312 313 314 314 313 313 314 312 312 313 314 314 314 314 315 316 316 316 316 313 312 313 312 311 312 313 315 315 313 314 316 317 316 315 315 314 313 312 312 312 313 314 314 313 315 316 312 311 311 312 313 312 310 311 311 310 307 306 306 305 306 309 313 314 314 314 313 312 312 311 310
307 309 309 308 309 312 314 313 314 314 313 313 314 314 313 313 313 313 313 314 314 315 314 314 313 313 314 314 314 314 315 315 317 317 316 315 314 312 313 313 311 312 318 322 319 314 314 317 316 316 316 317 316 316 316 316 314 313 315 315 314 315 315 313 312 312 313 315 315 312 311 310 309 308 307 306 305 305 308 312 314 313 314 313 312 311 310 310
308 310 311 310 310 312 313 312 313 314 313 312 313 314 314 314 312 313 315 314 312 314 315 313 313 314 314 314 314 314 316 316 317 317 315 314 314 312 311 311 311 315 320 322 319 314 316 319 316 315 316 316 316 318 319 318 316 316 317 317 315 315 316 314 314 313 313 315 315 313 312 312 311 310 309 307 306 306 308 311 313 314 313 312 311 311 310 310
307 309 310 311 312 313 313 312 313 314 312 311 312 314 315 315 313 312 314 314 313 314 314 313 314 314 313 314 315 315 315 315 315 316 316 315 313 310 310 310 312 316 318 317 317 314 314 317 316 316 317 315 315 317 319 319 317 317 318 319 318 316 316 316 315 315 315 314 314 314 315 315 314 312 310 309 308 307 309 311 312 313 312 312 311 310 310 310
304 305 304 306 311 314 313 312 313 313 312 311 312 313 315 315 314 312 313 314 314 314 314 313 314 315 314 314 315 315 316 315 315 316 317 316 313 311 310 310 312 315 315 314 317 317 314 314 316 317 317 316 315 315 317 317 317 317 318 318 318 316 316 317 316 316 316 315 314 315 317 316 314 312 312 311 309 308 309 311 311 312 312 311 311 310 310 310
301 302 301 302 307 312 312 312 313 313 313 312 312 313 314 315 314 314 314 314 314 314 315 315 315 315 314 314 314 316 316 314 315 317 316 315 315 313 311 310 311 313 314 313 315 316 314 313 316 317 316 318 319 316 317 318 317 319 319 318 317 316 315 315 315 315 316 316 315 316 320 319 315 313 313 312 311 309 309 310 311 312 312 311 311 310 310 310
301 302 302 304 306 308 311 312 312 313 312 312 312 313 313 314 315 315 315 315 315 315 315 316 316 315 315 315 315 316 315 314 316 317 315 314 315 314 312 311 311 311 313 312 312 314 313 314 319 318 314 318 320 316 316 317 317 320 321 319 317 316 316 315 316 316 315 316 316 316 320 321 316 314 315 314 313 311 310 311 311 311 312 311 310 310 310 310
299 298 300 305 306 306 310 313 312 312 313 312 311 313 314 313 314 316 315 315 316 316 315 316 316 315 315 316 316 316 315 315 317 317 315 315 315 315 315 315 313 312 313 312 312 315 313 313 316 315 312 317 319 315 314 314 313 316 319 320 318 317 316 316 316 316 316 316 317 318 318 318 315 314 316 314 312 311 311 311 310 311 312 310 310 310 310 310
298 297 298 303 305 303 306 312 313 313 313 312 311 313 314 314 314 315 315 314 315 316 315 316 316 314 313 314 315 316 316 315 315 315 314 315 316 316 317 316 313 313 313 312 313 315 313 312 314 313 313 318 316 312 312 312 311 312 315 317 318 317 316 316 315 315 315 316 316 317 316 315 314 314 314 313 311 310 311 311 311 311 312 311 310 311 311 311
Wind_Speed
36 37 36 34 33 32 31 32 32 32 31 29 29 28 29 29 28 28 27 27 26 25 27 27 28 29 28 26 23 22 19 13 8 8 11 18 24 19 10 9 11 12 15 11 7 7 6 7 8 7 6 5 4 3 3 3 3 4 4 4 5 5 4 4 4 2 3 8 9 9 10 7 7 7 3 3 4 2 5 5 5 5 5 7 8 6 12 19
37 37 36 35 33 32 31 32 31 30 30 29 29 28 28 29 28 27 27 27 26 25 26 27 28 28 28 27 23 22 19 9 3 8 18 24 22 19 15 16 16 12 12 12 11 10 9 9 8 8 7 6 4 3 3 2 3 5 4 5 4 3 3 4 5 5 3 7 10 9 9 5 5 9 6 5 6 6 5 6 6 6 8 9 10 11 13 17
37 37 37 36 33 33 32 32 31 30 29 29 28 28 27 27 28 27 27 27 26 24 23 25 27 27 28 26 22 22 15 3 2 11 25 28 25 23 19 18 19 15 13 13 12 13 12 10 9 9 8 6 6 6 4 3 3 3 3 5 2 5 6 5 5 6 6 4 10 10 7 4 4 7 6 5 6 7 6 6 8 8 10 10 12 14 15 16
37 38 37 36 33 33 33 31 30 30 29 28 28 27 26 26 27 27 26 27 25 24 23 24 25 26 28 27 24 19 10 6 3 17 29 28 26 27 24 21 19 16 14 11 10 12 11 11 10 9 8 7 7 7 7 4 2 2 2 2 4 4 4 5 5 5 5 3 5 9 8 6 4 4 5 5 5 6 6 6 6 6 11 13 13 16 16 16
38 39 38 37 34 32 33 31 30 30 29 29 28 27 26 26 26 26 26 26 24 23 24 24 24 25 27 26 23 17 13 3 6 19 27 25 25 24 24 25 20 17 15 11 10 10 9 10 11 9 8 6 8 8 9 7 4 4 2 3 5 2 2 4 4 4 3 2 4 9 7 6 5 4 6 7 5 2 1 3 4 2 6 14 15 15 16 16
39 38 38 37 34 31 32 31 30 31 30 29 28 27 27 26 26 26 26 25 24 23 23 25 24 24 24 23 21 19 12 2 2 9 14 18 23 22 23 25 20 17 15 12 12 10 9 11 10 10 8 6 10 9 8 8 5 4 4 3 4 3 3 4 3 3 1 1 6 7 4 5 6 6 4 7 5 5 7 8 8 6 5 12 16 15 15 15
39 38 38 36 34 32 32 32 32 31 30 29 29 28 27 27 27 26 26 25 24 23 22 24 25 24 25 24 19 12 5 5 4 4 5 11 18 21 24 23 21 18 16 14 13 10 10 12 12 10 9 8 11 10 8 7 6 4 5 6 4 4 3 3 3 2 1 2 4 3 3 4 7 4 2 6 5 6 6 6 7 4 4 9 14 14 15 16
39 37 37 37 35 33 33 34 33 31 30 29 29 29 28 27 27 26 26 25 23 23 22 25 27 26 30 28 16 5 4 9 13 9 5 8 14 20 23 20 20 18 17 16 14 11 10 12 13 11 9 9 10 9 8 8 7 5 6 8 4 4 4 4 3 4 2 2 3 2 4 3 1 0 0 6 4 6 4 3 3 3 4 7 10 12 13 14
40 38 37 37 35 34 33 33 32 31 30 28 28 28 28 27 26 25 26 25 23 23 23 26 29 30 32 23 11 6 8 16 18 8 3 9 14 20 20 18 20 19 17 16 14 14 11 10 13 12 8 7 10 9 9 9 5 4 8 9 7 6 5 4 4 4 3 3 3 5 5 3 2 1 4 5 4 5 3 2 2 2 4 6 8 10 11 12
41 39 38 38 36 34 33 33 32 31 30 28 28 27 26 26 25 25 26 23 22 22 23 25 29 32 27 14 8 6 7 15 18 8 2 8 16 22 18 15 19 19 16 14 14 14 11 10 13 9 6 5 9 7 8 8 3 8 10 9 8 7 5 3 4 5 3 4 3 4 4 3 3 2 4 3 5 3 4 4 3 4 5 6 7 8 9 11
41 39 38 39 37 35 32 32 31 30 29 28 27 26 25 24 23 23 23 21 22 22 23 24 28 32 21 10 9 6 5 11 16 11 5 9 17 22 18 13 17 18 15 13 12 14 13 11 9 6 3 4 8 4 3 3 3 11 12 10 8 6 6 3 5 5 3 4 1 3 3 4 4 3 3 6 4 1 3 5 5 5 6 6 7 7 7 9
41 39 39 39 38 36 33 31 30 29 29 27 26 24 23 23 23 23 21 20 21 22 22 23 28 28 15 8 7 4 5 10 14 13 10 13 17 20 18 13 13 14 12 12 12 14 13 6 4 7 4 4 8 5 3 2 4 12 11 9 8 6 6 4 4 4 3 3 1 2 3 6 8 7 4 7 4 2 2 4 5 6 6 5 6 6 6 8
41 40 39 39 38 36 34 31 30 29 28 27 24 22 21 21 23 23 20 19 19 20 21 22 27 22 10 6 5 5 8 9 12 13 14 15 15 17 16 13 13 13 10 9 10 11 11 6 5 8 6 4 5 5 5 4 4 10 8 6 7 6 6 5 4 3 3 2 1 3 3 5 10 8 7 7 3 3 4 4 5 6 6 6 6 6 6 8
42 41 40 39 39 37 34 31 29 28 28 26 23 20 21 21 23 22 20 19 18 19 20 20 24 16 7 4 3 5 10 10 12 13 15 15 13 13 12 11 12 13 10 5 4 8 10 7 6 6 5 4 3 6 7 5 3 7 6 4 6 6 6 7 5 5 5 3 2 5 4 2 7 8 6 4 4 4 5 5 6 5 5 6 6 6 6 8
43 42 41 39 38 36 34 32 30 28 27 25 23 21 22 22 22 21 20 19 18 19 19 18 20 11 5 4 2 6 10 9 11 12 14 15 12 11 10 9 9 9 10 6 4 6 7 8 6 6 2 1 6 9 7 5 4 6 5 5 7 5 5 7 4 3 3 3 5 5 5 4 6 8 5 3 4 5 5 5 5 5 6 6 6 7 7 7
44 43 41 39 38 36 35 34 31 28 25 24 25 24 23 22 21 20 20 19 18 19 17 15 17 10 5 5 3 6 8 6 10 12 14 15 10 10 11 10 8 6 6 5 5 7 8 8 4 3 3 5 9 8 6 6 5 5 5 5 7 8 6 6 4 2 1 3 7 7 5 3 5 7 5 4 4 4 5 6 6 6 6 6 6 6 6 7
44 42 41 39 38 37 36 34 31 28 26 26 27 25 22 20 20 19 19 17 17 18 13 9 15 8 2 4 4 6 7 6 10 12 16 15 9 13 15 10 8 8 7 6 8 9 9 7 2 2 5 7 9 8 8 8 7 6 5 3 4 7 6 5 4 3 3 3 7 9 8 8 2 7 7 6 5 4 3 5 6 6 5 6 6 5 6 7
43 42 41 40 38 38 36 34 33 29 28 30 27 23 22 20 20 19 18 16 16 15 7 5 12 6 3 7 5 5 9 10 13 14 16 14 10 14 13 8 9 10 10 7 8 9 8 6 4 5 7 8 10 10 9 9 9 9 8 4 3 4 4 3 4 5 6 6 7 9 9 12 8 5 7 9 8 4 4 5 5 5 6 6 6 6 7 6
43 42 42 40 40 40 38 36 34 31 32 30 26 26 23 19 15 12 14 15 14 11 4 7 11 3 3 10 6 6 10 13 14 12 13 12 11 11 9 9 11 11 10 7 8 10 7 6 6 7 8 10 12 12 10 9 11 13 12 9 6 6 4 2 5 3 3 5 8 10 9 11 11 8 7 8 9 6 6 6 6 6 6 7 7 7 6 7
43 42 42 41 41 40 38 38 35 35 35 31 32 28 17 14 11 7 10 11 10 4 1 11 12 1 3 9 10 13 12 11 8 6 11 13 12 12 9 8 10 9 9 9 9 7 6 7 8 9 10 13 13 9 4 4 9 13 12 9 7 8 5 4 6 3 1 3 8 10 10 10 10 9 8 7 8 7 8 8 8 8 8 7 7 6 6 7
43 43 43 42 42 41 40 38 37 37 34 32 32 19 10 14 9 9 14 9 5 2 2 12 12 1 4 7 15 18 11 6 4 5 11 14 11 10 9 8 10 9 9 12 9 5 5 8 11 11 11 13 11 4 2 2 7 10 9 8 8 7 4 5 4 3 1 2 4 5 8 11 11 9 9 8 8 8 9 9 9 8 8 6 6 6 6 4
44 44 44 44 43 41 40 38 37 37 32 29 26 11 6 9 6 14 17 7 6 4 2 12 8 4 5 5 10 12 8 6 7 6 9 12 9 7 8 9 11 10 9 11 8 6 7 10 11 8 5 8 7 4 3 4 6 7 6 7 6 4 5 5 3 4 2 2 1 1 5 10 10 10 10 8 8 7 4 4 5 5 5 5 5 4 4 4
44 44 44 44 43 42 40 37 35 36 30 26 23 9 3 9 19 26 16 6 6 2 3 10 6 5 6 3 4 5 6 7 9 8 9 12 7 4 8 10 12 11 10 12 9 8 9 6 5 5 7 9 7 6 6 5 5 5 5 7 5 6 5 2 4 5 2 1 1 3 5 8 8 10 8 3 2 3 1 2 3 3 4 5 4 3 4 5
44 44 44 44 44 42 39 36 34 32 26 22 22 13 4 18 29 25 10 6 6 0 2 2 1 6 6 3 4 5 5 5 6 10 11 12 7 4 8 11 12 10 10 14 13 11 6 1 1 3 8 10 9 8 8 6 5 3 4 5 4 7 4 2 6 6 2 2 2 4 6 7 7 10 8 4 3 3 2 3 3 3 4 3 3 3 4 4
46 44 44 45 42 41 39 33 30 28 21 17 21 17 10 20 23 16 6 5 5 2 2 2 0 5 6 4 2 3 6 5 2 4 7 9 5 5 6 4 6 10 12 15 14 10 3 3 1 5 9 11 10 10 10 8 6 4 4 2 3 7 7 7 9 7 2 4 3 2 5 4 4 9 7 5 4 5 4 4 4 3 3 3 3 3 2 2
46 44 44 45 41 43 36 23 23 26 18 16 20 17 14 18 16 9 5 5 6 4 3 3 3 6 8 4 2 4 7 3 3 3 5 4 1 3 5 2 1 6 12 11 7 4 3 2 1 5 8 9 10 9 10 9 6 5 3 2 4 6 8 9 9 6 2 2 2 1 5 3 2 6 6 5 4 5 5 4 4 2 2 2 2 1 1 1
45 44 46 44 44 45 28 15 24 27 14 13 19 16 17 18 10 4 3 4 6 5 6 3 1 6 9 3 2 5 7 6 4 2 3 2 1 1 3 6 3 1 4 5 4 1 4 4 2 6 8 7 8 7 7 9 7 2 1 1 5 7 9 10 8 5 1 2 2 2 2 4 4 3 5 6 5 5 6 5 4 3 2 1 1 1 1 1
43 46 46 44 47 39 20 20 31 24 9 9 16 17 17 15 6 2 3 5 5 5 6 3 1 5 6 2 1 0 4 9 8 3 2 2 2 0 3 9 7 5 2 2 6 1 3 6 6 8 9 7 6 1 2 7 5 1 1 0 4 6 8 9 6 3 1 0 4 4 3 3 6 2 5 5 6 7 8 7 5 3 2 2 2 2 2 2
43 46 45 46 45 25 15 26 30 21 13 12 16 19 16 11 4 2 4 4 5 4 4 5 4 5 6 6 3 2 4 4 2 4 4 2 1 1 2 6 9 9 5 3 3 1 2 2 2 4 6 5 3 4 4 1 1 3 4 4 6 5 6 5 4 3 2 3 4 4 3 4 5 4 5 5 6 8 8 6 4 3 3 2 2 3 2 3
44 46 45 49 38 18 19 25 22 21 19 15 19 21 15 7 4 5 5 4 6 5 4 4 6 9 12 11 5 3 5 3 3 7 6 5 4 1 1 2 7 9 4 6 6 2 2 1 2 1 1 2 5 6 5 4 6 8 7 8 8 5 4 2 1 2 3 5 2 3 1 2 4 5 5 4 2 4 7 7 5 4 4 3 3 3 3 3
44 44 47 46 30 19 21 17 18 24 19 18 23 20 11 5 5 7 5 4 7 6 5 6 9 12 16 15 7 5 6 5 7 11 8 6 6 5 5 4 5 5 3 4 5 3 4 3 1 2 1 1 5 7 6 3 6 6 6 8 7 4 3 3 2 2 5 4 1 2 2 2 5 4 2 3 2 1 4 7 8 8 6 5 4 3 3 3
42 43 46 38 23 18 13 10 23 26 19 23 23 12 7 6 6 7 6 7 7 6 7 10 13 14 17 15 9 8 8 6 8 11 10 9 6 8 8 6 7 6 5 6 4 3 4 3 3 3 1 3 4 6 5 2 3 3 6 8 6 5 4 4 4 4 5 2 2 2 1 3 6 7 3 2 3 2 2 6 9 10 8 6 5 4 3 3
40 43 42 30 22 16 6 12 28 26 21 24 15 6 7 8 8 9 8 7 7 8 10 11 14 17 17 13 9 9 8 5 8 9 10 10 8 7 4 3 7 5 4 7 6 5 4 2 3 3 2 4 5 5 5 4 5 7 8 8 6 6 5 6 6 4 3 1 1 0 0 3 5 6 5 3 7 6 5 6 7 8 9 7 6 4 4 4
38 42 37 25 20 13 4 15 29 27 24 18 8 7 10 8 8 10 9 6 5 9 11 12 16 18 15 10 9 9 5 2 6 7 8 9 8 8 5 4 5 2 3 7 6 6 5 3 4 4 3 5 6 2 1 5 8 5 3 3 5 5 4 5 5 4 2 3 2 1 2 3 3 0 3 3 8 8 6 6 6 6 7 6 6 5 5 5
37 39 32 22 18 11 4 16 30 27 19 10 6 9 10 8 8 11 9 6 6 10 13 14 16 15 11 6 7 6 1 1 5 4 7 9 8 9 8 8 7 3 6 8 3 4 5 1 1 1 1 3 4 1 2 3 7 3 1 1 3 2 1 1 0 1 2 2 3 4 3 4 2 4 4 4 8 8 6 6 6 6 6 5 5 5 5 5
36 34 25 18 16 10 7 20 31 23 12 8 8 9 9 6 6 8 9 9 9 13 16 15 12 11 8 4 4 4 1 2 7 6 5 6 6 9 10 9 9 8 8 6 2 2 4 1 3 1 0 1 1 2 2 0 3 3 1 3 2 2 3 3 1 2 1 3 3 4 3 3 2 4 7 8 8 7 7 7 8 8 8 7 5 5 5 5
32 26 17 13 13 10 11 23 28 17 8 7 10 9 5 1 1 4 8 10 12 15 16 12 8 8 9 7 7 9 5 5 6 5 5 5 4 8 11 8 10 12 6 2 1 2 3 3 3 2 2 3 3 2 2 2 1 2 3 4 3 1 1 1 2 2 2 5 2 4 6 5 4 4 6 10 10 9 9 9 9 9 8 7 6 5 5 5
26 19 11 9 11 11 15 23 22 11 4 5 11 10 2 2 0 4 10 13 13 13 11 9 5 5 9 10 9 11 11 8 7 5 6 6 4 9 13 7 7 11 5 1 1 1 2 3 2 2 1 2 1 1 2 1 1 1 1 1 2 1 3 3 3 2 4 5 3 4 5 4 5 4 7 12 13 12 12 12 11 11 10 8 7 7 6 5
19 12 5 7 11 13 19 22 15 7 4 6 11 9 2 3 1 2 7 12 13 11 9 8 5 2 6 10 10 12 11 9 9 7 5 6 4 7 13 8 4 9 6 2 2 2 1 1 2 1 1 1 1 3 5 5 2 1 0 1 0 1 2 3 4 3 3 5 5 4 3 3 6 6 9 14 16 15 15 14 13 13 12 10 8 8 7 6
11 6 3 7 13 17 21 17 8 5 7 7 7 5 2 3 3 1 2 4 8 6 6 8 8 5 6 8 10 10 8 7 10 8 4 7 5 3 9 10 7 7 6 4 1 3 1 1 2 3 1 2 3 3 4 5 5 4 5 5 4 2 0 1 3 2 2 4 5 4 4 3 3 4 9 14 16 16 16 14 13 13 12 11 9 9 8 7
3 4 4 8 17 23 20 11 5 6 6 6 4 3 2 3 5 4 2 3 2 1 1 6 8 7 7 8 9 9 5 5 9 6 3 7 7 3 5 9 9 9 7 3 2 3 1 1 4 4 3 4 2 1 2 1 1 3 5 7 7 5 3 3 5 2 0 3 3 2 4 2 2 0 2 4 8 13 16 15 13 13 13 11 10 9 8 7
3 5 4 9 22 25 15 6 6 6 5 4 3 3 3 4 6 7 3 1 2 2 1 2 4 6 7 6 8 9 6 5 7 7 4 6 9 5 2 4 10 12 9 4 2 1 1 3 5 4 3 2 1 2 1 1 1 3 3 4 5 6 6 6 5 3 3 2 1 1 3 2 2 2 2 2 2 2 10 15 14 13 13 12 10 10 9 8
3 4 4 7 21 20 9 6 8 6 4 3 3 5 4 4 5 7 6 4 2 2 2 2 2 3 3 3 6 10 9 5 6 8 6 5 5 1 1 4 10 12 8 4 3 1 1 3 4 3 2 1 1 2 1 1 1 4 4 4 4 4 4 3 2 1 3 4 2 3 5 3 2 2 2 2 3 3 3 12 15 13 11 11 11 10 9 8
3 4 4 4 14 12 6 8 10 9 7 6 6 5 3 2 5 6 8 6 2 3 4 3 2 2 2 3 5 11 12 6 4 6 4 4 3 2 0 7 11 11 6 3 5 6 4 3 4 4 3 2 2 2 2 2 3 5 5 6 6 3 3 3 0 1 2 6 7 6 6 4 2 2 1 2 2 1 2 8 13 12 10 10 10 9 8 8
3 4 3 2 5 6 4 3 6 9 10 9 9 8 5 3 2 1 5 5 1 1 4 3 1 3 5 4 4 7 9 3 2 4 2 2 2 2 2 5 10 10 3 2 5 7 5 4 5 6 6 6 6 6 6 5 4 4 4 6 8 8 7 5 3 3 4 6 7 7 7 3 2 3 3 3 5 6 6 9 10 10 10 11 10 9 9 9
2 3 2 2 1 3 3 2 2 7 11 10 9 9 9 7 3 2 1 3 1 1 3 3 2 4 6 7 6 7 7 1 2 4 5 4 3 2 2 1 4 3 3 3 7 7 3 2 6 9 8 8 9 7 7 7 7 8 10 11 12 12 11 7 3 5 7 5 5 8 9 6 3 5 6 5 7 9 9 10 10 9 10 10 9 9 9 9
1 1 2 3 2 4 5 4 5 7 10 11 8 8 10 10 8 3 1 0 3 2 3 2 3 5 9 11 8 8 9 3 2 4 6 5 3 3 3 3 2 2 3 2 6 5 2 3 7 11 11 9 4 2 8 10 9 12 14 13 13 12 12 9 7 10 8 4 6 10 10 11 10 8 8 7 8 9 10 12 12 11 10 9 9 9 9 9
1 2 1 2 1 5 6 8 10 10 12 13 8 9 13 11 11 8 2 1 2 3 1 2 3 6 11 14 9 7 8 5 2 4 5 5 4 4 3 3 1 0 1 2 2 1 3 6 9 10 12 8 2 4 7 10 10 11 11 11 12 12 13 13 12 14 10 7 11 12 12 14 14 8 9 10 10 11 12 13 12 11 10 9 10 10 10 11
2 2 1 4 2 3 5 8 11 11 14 13 8 10 14 14 12 9 5 5 4 4 2 4 8 8 11 13 9 8 9 7 5 4 4 5 5 5 4 2 1 1 1 3 2 1 3 6 7 9 12 8 4 4 3 6 7 8 9 11 13 13 15 15 13 16 15 13 14 12 7 10 12 9 8 8 9 9 8 8 9 10 11 10 11 12 12 12
1 1 0 1 3 4 3 8 11 11 12 11 9 9 12 14 13 9 5 5 7 7 4 5 10 9 8 10 7 7 12 11 7 7 8 7 4 4 4 3 4 2 0 3 3 1 2 3 4 5 7 5 4 3 1 2 4 5 5 8 12 12 14 14 13 15 15 15 16 12 7 8 9 7 4 3 6 6 7 9 11 11 11 11 13 13 13 13
2 2 2 2 3 3 2 8 11 10 10 10 9 9 11 15 13 10 5 1 2 7 7 7 11 7 3 5 5 5 8 5 3 8 13 10 5 6 4 3 7 7 2 3 4 1 1 1 2 3 5 4 2 3 4 3 2 1 2 7 12 12 12 13 13 13 13 14 16 13 11 10 6 6 4 4 6 7 9 11 12 11 11 13 14 14 13 13
2 2 3 1 2 2 1 5 9 10 8 9 10 9 10 12 13 11 6 1 2 2 4 8 11 7 3 7 6 3 5 6 6 5 7 4 3 4 3 3 10 10 7 6 4 2 5 4 2 4 6 3 2 2 6 6 1 4 6 11 15 14 14 13 12 13 15 15 13 12 12 9 4 8 6 4 7 9 9 11 11 12 13 13 13 14 13 13
Wind_Direction
200 199 193 190 193 195 196 196 194 192 193 193 191 193 193 192 192 193 194 196 200 202 200 195 195 198 199 202 203 205 211 221 230 238 242 231 223 224 235 255 268 252 238 233 212 209 187 206 212 187 190 190 211 186 163 226 224 210 206 218 221 200 185 155 150 118 115 131 137 158 173 179 154 162 171 169 216 150 146 168 127 127 120 95 112 120 127 139
200 198 192 188 191 193 195 195 193 191 192 192 191 192 192 191 191 192 193 197 199 201 200 196 196 196 197 200 201 204 207 204 227 261 240 227 226 233 241 248 255 251 224 214 209 203 194 202 199 189 199 186 171 169 169 198 223 217 201 218 227 161 102 73 89 65 48 130 139 158 178 190 159 156 174 192 173 163 179 170 165 163 142 121 125 136 140 149
198 196 191 188 190 193 194 193 192 192 191 192 192 191 191 189 189 191 193 197 198 197 194 194 196 194 195 195 193 199 193 140 357 261 236 227 235 237 240 245 245 244 222 217 214 204 208 203 190 194 206 202 179 180 191 191 216 223 216 218 177 93 92 60 66 67 30 86 141 154 170 189 149 146 176 202 165 175 203 172 176 186 166 150 141 147 152 160
196 195 190 187 189 192 193 192 191 192 190 191 192 189 189 188 188 189 192 196 196 193 189 188 189 188 191 188 191 189 148 56 303 239 235 235 242 239 236 239 240 236 223 226 218 204 222 212 188 196 216 214 184 189 190 179 208 180 224 246 92 96 113 75 56 70 34 16 143 141 160 184 148 156 188 197 177 184 208 179 176 193 175 160 149 156 163 167
195 193 190 186 186 189 192 191 190 191 190 190 191 189 187 187 189 188 189 195 193 191 188 184 180 178 180 180 185 165 121 66 238 223 236 243 244 238 230 232 235 227 215 219 209 200 231 219 188 195 226 213 176 193 182 169 207 173 157 20 65 67 91 88 61 68 44 353 140 138 161 166 138 181 204 214 213 146 104 92 91 53 143 154 152 157 166 173
193 190 188 184 182 187 191 190 190 191 191 189 188 186 186 186 188 186 187 191 190 188 185 182 174 167 168 165 163 150 142 215 224 200 232 244 239 229 219 224 227 215 206 209 201 196 220 215 192 194 220 207 184 190 164 160 218 201 153 80 60 25 53 92 80 71 40 147 151 142 137 136 166 195 199 234 250 67 55 48 58 44 92 144 152 157 167 178
190 187 188 185 183 187 190 189 190 193 191 188 186 184 184 184 186 185 186 188 188 185 180 177 171 162 159 150 145 154 188 264 261 239 255 243 229 215 208 214 214 204 201 202 193 191 209 208 199 198 209 203 189 184 156 160 223 227 152 128 89 46 60 75 88 112 131 127 121 108 121 168 200 193 132 242 241 96 81 46 54 64 108 147 155 164 175 182
187 187 188 185 183 186 188 189 189 190 187 185 184 182 183 183 184 185 185 186 184 181 177 171 168 162 157 147 140 162 249 236 231 253 264 221 210 201 196 200 202 196 200 200 191 190 200 207 203 199 206 200 185 176 159 165 214 221 140 127 117 81 86 87 106 132 139 109 88 132 174 170 199 347 275 236 208 112 103 65 68 89 134 165 169 174 179 184
185 186 186 183 180 183 186 186 185 184 181 182 181 178 180 182 182 182 183 184 178 175 173 168 166 162 157 150 142 162 219 222 222 241 245 204 195 188 183 188 192 189 198 198 195 196 196 208 207 208 226 206 176 169 173 179 202 182 132 126 129 112 106 115 121 129 144 131 141 179 176 128 72 326 253 217 137 100 119 132 139 160 172 182 181 181 183 185
184 184 185 181 177 179 181 180 179 178 177 181 179 173 175 177 177 178 181 181 176 173 172 168 164 161 161 163 161 174 213 211 215 228 206 194 187 179 178 186 188 190 195 194 199 202 198 209 209 221 276 229 174 164 185 194 149 122 122 119 121 117 119 141 128 128 138 122 168 203 171 140 113 245 240 143 94 102 167 163 163 196 206 199 187 186 187 189
182 183 183 180 175 174 175 174 174 175 176 177 175 171 172 173 173 176 181 180 175 175 173 169 165 164 169 183 183 188 187 187 209 222 186 182 184 179 182 190 191 194 192 187 200 203 203 212 210 221 292 191 170 148 163 205 129 126 123 113 115 121 121 137 137 142 162 128 198 251 176 156 141 222 215 111 98 120 171 172 168 195 212 204 192 187 187 193
180 180 180 177 173 171 173 173 172 173 174 174 170 168 170 172 173 175 178 178 176 176 173 170 168 167 174 202 207 190 156 174 198 208 185 176 184 184 189 192 191 198 196 193 201 203 206 212 222 228 240 179 161 143 134 178 157 142 140 129 132 149 143 148 139 154 220 147 156 263 228 209 195 207 147 117 131 117 163 186 171 192 201 200 195 187 189 192
177 177 176 173 170 169 171 171 170 170 169 170 166 164 169 171 175 175 173 175 175 174 174 173 169 171 192 210 198 159 155 174 183 191 186 175 181 189 194 196 190 196 205 209 197 195 206 212 246 243 253 239 163 126 115 123 154 156 170 161 149 179 173 156 143 168 205 129 161 235 259 223 189 179 119 118 156 148 205 209 183 192 187 196 197 194 198 190
174 174 172 169 168 167 171 173 171 170 167 167 165 166 170 169 171 170 167 170 172 172 173 174 172 179 219 195 139 154 161 169 175 183 183 173 172 177 190 198 191 197 207 229 191 182 201 205 240 248 269 285 153 133 122 115 171 164 171 183 175 200 169 140 144 181 187 145 205 226 260 248 144 137 111 122 173 176 213 205 189 190 180 194 193 198 205 195
172 172 170 168 167 166 169 172 172 170 165 164 167 168 167 164 164 163 162 165 167 170 169 171 176 184 228 194 128 172 166 163 175 184 181 172 168 165 175 180 178 201 207 225 216 181 181 179 215 229 206 156 151 154 142 133 193 174 170 194 197 205 149 128 141 188 195 161 194 215 249 241 125 120 116 129 173 187 215 209 195 197 192 196 192 201 208 202
172 171 170 167 166 165 166 169 170 167 159 161 167 165 160 157 157 157 155 158 163 167 162 168 183 200 234 181 128 170 173 174 183 188 179 173 178 165 150 148 156 180 186 196 189 156 160 170 208 234 162 166 173 165 151 156 186 190 204 199 190 199 170 141 145 179 221 156 193 219 259 258 114 116 135 143 159 169 208 223 214 212 206 204 205 203 205 206
171 170 170 167 166 165 164 166 165 160 157 160 160 157 156 153 151 149 145 152 157 157 154 167 186 213 276 143 139 182 180 180 180 183 179 172 172 158 144 140 151 153 142 146 159 153 165 174 173 199 182 192 194 180 173 186 188 183 213 214 181 203 193 165 151 157 195 203 210 213 243 262 167 122 144 160 168 163 194 224 219 215 211 209 210 207 210 210
171 170 169 167 166 164 163 162 159 159 158 157 157 153 149 143 140 138 138 144 141 142 154 177 177 201 237 170 164 170 165 167 167 171 178 169 158 157 151 149 150 150 145 140 162 170 174 178 182 194 194 201 201 194 192 195 187 177 190 198 175 208 228 195 144 146 185 206 225 211 225 252 243 177 166 169 176 198 228 234 234 227 226 220 213 217 218 214
170 170 169 166 164 162 161 159 159 161 158 155 153 147 136 129 130 132 144 154 151 153 182 180 178 202 190 170 139 114 143 156 156 158 170 165 158 160 154 156 158 159 160 159 177 181 177 180 199 204 195 199 202 201 206 204 192 185 187 198 188 188 214 139 103 104 196 200 217 223 230 247 247 230 213 185 176 208 245 246 248 242 242 238 225 224 218 221
169 169 166 164 162 161 159 159 161 162 160 156 152 146 136 137 143 147 168 185 179 178 252 176 183 287 86 139 121 115 128 140 141 148 166 164 159 156 152 161 166 173 180 172 169 174 183 187 198 207 197 197 200 197 206 219 203 192 189 199 196 188 186 112 97 87 316 234 217 225 242 252 253 246 242 219 183 202 237 239 240 235 237 238 229 225 218 221
168 167 165 162 161 160 160 160 162 164 163 162 160 157 159 163 164 161 168 180 155 19 327 167 168 54 62 123 130 134 133 120 114 139 163 165 165 163 161 170 173 184 193 178 158 141 189 205 203 208 201 191 190 168 111 179 194 191 187 192 198 199 165 96 96 108 73 269 214 214 253 257 257 254 248 237 212 217 233 233 234 232 232 233 227 228 227 220
166 166 164 162 160 160 161 161 163 166 166 171 176 184 181 169 128 137 151 136 99 33 48 147 142 63 70 126 147 150 144 123 127 143 162 168 186 189 167 179 185 178 177 174 158 149 195 215 198 187 169 152 142 127 159 170 179 189 191 197 203 177 130 102 109 119 116 251 205 146 271 262 259 257 246 231 222 226 236 241 246 247 243 240 237 243 246 241
165 165 164 162 160 161 162 161 162 167 172 182 192 214 206 145 127 135 142 107 110 30 96 143 151 116 111 150 202 186 155 139 150 162 170 174 190 196 168 184 190 174 171 179 178 179 193 207 176 136 128 138 136 156 170 159 176 193 189 197 195 152 154 184 156 140 129 226 316 335 288 271 264 255 241 196 187 226 254 262 252 247 244 250 263 275 270 262
165 164 164 161 159 160 160 159 162 171 181 192 204 225 191 142 141 146 143 99 127 66 41 128 151 142 143 166 213 210 160 124 146 156 173 180 166 163 176 186 189 178 182 191 194 194 179 73 10 140 156 165 163 171 181 178 179 191 200 203 180 155 151 49 130 141 136 179 257 303 279 268 244 235 225 140 132 194 190 224 218 203 216 239 263 255 253 262
165 163 162 159 158 159 158 159 167 176 183 197 214 229 203 155 153 160 145 115 138 100 6 310 46 151 163 168 214 207 137 91 52 130 167 186 158 150 173 186 197 187 185 191 199 203 165 34 297 166 168 182 178 183 196 200 188 180 210 213 154 161 136 98 130 146 180 199 191 259 261 262 208 218 215 154 163 177 162 203 203 177 189 206 231 229 233 239
165 163 161 159 157 156 156 161 172 173 175 205 220 224 207 178 165 169 148 140 164 143 149 181 165 160 162 165 190 168 148 119 2 75 137 181 161 146 165 143 278 195 182 183 202 216 114 73 263 156 164 181 191 199 195 202 211 187 186 87 117 151 137 133 155 170 212 196 122 221 250 255 184 203 193 164 183 181 169 194 189 174 183 185 208 205 229 213
164 163 161 160 158 156 155 159 166 166 170 211 217 211 201 188 174 176 147 158 180 159 154 170 257 170 161 157 184 180 166 137 115 103 115 153 145 40 174 167 160 173 160 162 192 179 113 138 148 150 161 172 195 206 180 199 223 180 107 118 148 155 152 154 171 193 228 95 131 198 243 267 259 206 150 159 194 197 195 195 175 164 167 152 144 141 128 89
163 163 162 161 160 158 156 155 160 170 182 192 198 198 191 180 171 187 166 172 171 141 152 159 94 156 149 117 121 192 139 132 138 151 83 90 145 333 191 178 165 128 85 184 193 171 98 153 155 157 173 180 194 228 137 199 219 81 350 242 141 148 156 164 180 189 50 224 204 177 154 249 254 196 128 164 209 215 207 194 172 150 130 118 106 95 90 91
162 162 162 160 160 157 154 156 161 177 185 172 180 183 173 163 160 191 196 187 149 123 145 145 142 154 149 141 120 76 129 122 120 145 134 121 135 331 192 169 142 118 69 26 149 89 27 161 163 167 185 175 123 35 14 254 150 147 174 109 94 104 121 150 189 158 137 244 225 161 164 251 258 214 165 174 220 222 203 180 157 137 120 108 101 94 90 97
161 161 160 160 160 152 147 155 166 179 176 169 171 166 154 152 169 177 203 197 145 134 135 144 167 166 158 154 137 146 148 83 79 132 140 147 134 77 14 137 128 121 87 53 70 63 49 55 324 1 181 132 97 70 18 20 109 146 158 118 104 106 104 115 173 152 198 231 210 106 105 278 269 233 183 167 230 217 182 164 151 142 133 124 110 105 100 96
160 160 160 162 161 151 147 155 175 180 174 162 158 155 151 158 184 185 187 159 137 138 148 156 161 162 167 166 150 153 139 99 136 145 142 143 134 140 151 151 132 121 138 111 81 84 102 116 154 59 31 168 117 87 37 48 134 152 155 135 125 119 137 162 155 197 229 228 146 56 6 257 241 234 162 95 44 141 174 169 160 154 146 137 127 114 102 92
160 160 161 163 160 151 147 156 174 177 167 154 151 155 163 155 187 203 168 147 156 166 173 168 161 165 175 168 147 148 139 127 160 159 155 157 154 163 168 175 165 152 181 176 144 124 115 107 107 75 331 235 158 113 80 81 178 187 165 157 159 152 169 197 183 199 226 215 83 61 2 251 245 245 240 147 139 143 154 157 154 151 146 139 133 121 105 95
160 161 163 165 162 156 135 152 171 171 156 154 156 170 175 166 194 199 169 161 163 156 165 167 161 166 171 162 145 144 133 137 170 165 161 164 165 172 185 197 177 177 190 168 150 151 138 116 142 137 169 230 215 160 143 169 191 191 177 175 187 171 174 202 191 198 222 136 69 327 251 256 254 259 272 194 148 128 103 117 130 138 140 134 129 121 111 103
159 162 164 166 166 168 137 155 169 164 152 159 171 171 181 188 194 191 178 168 141 141 152 154 154 163 168 162 152 147 115 113 167 159 159 166 172 179 191 206 195 205 164 153 155 177 172 168 178 163 151 191 208 213 151 168 177 191 194 196 206 196 195 206 195 194 180 113 111 185 208 239 236 128 9 69 117 110 97 102 103 114 121 120 122 123 121 114
157 162 165 165 170 176 155 160 167 161 153 164 171 173 194 194 182 189 178 151 143 142 140 144 151 158 160 144 149 159 78 127 175 164 161 172 182 181 183 191 192 184 162 157 158 179 175 138 95 81 311 191 183 289 336 168 172 184 353 239 227 242 131 129 96 101 107 105 157 184 226 267 257 118 105 104 114 112 111 120 128 130 127 132 137 137 132 120
158 164 164 163 172 186 181 164 163 163 164 170 170 187 205 191 176 187 163 140 155 147 136 145 156 155 150 129 155 184 353 130 170 173 170 182 194 187 185 183 181 189 184 166 147 172 172 99 31 37 62 54 29 342 342 218 174 161 159 189 205 7 68 116 131 78 55 262 187 167 230 260 230 168 142 143 143 135 137 149 155 152 150 157 153 143 138 123
161 165 159 154 166 180 179 163 159 165 179 181 186 194 193 157 196 177 137 127 145 147 142 152 164 163 160 157 174 180 152 132 171 187 172 178 202 194 189 178 172 187 198 153 149 215 172 123 37 6 112 66 352 329 39 25 30 138 169 172 145 35 20 170 215 137 196 243 194 162 220 223 210 200 150 156 168 163 166 171 167 163 166 170 161 148 138 122
157 159 150 143 152 164 168 160 156 163 183 193 200 201 176 58 120 137 125 129 141 152 158 159 162 176 170 166 171 172 163 156 177 186 163 173 199 186 182 172 163 182 187 67 147 193 139 125 69 9 64 87 345 246 143 117 14 21 225 184 126 202 216 194 212 203 200 229 229 187 208 229 229 202 161 176 186 180 177 178 175 174 177 174 163 152 141 131
151 152 138 132 144 156 159 154 151 162 178 199 202 200 158 95 131 97 123 143 152 160 171 163 152 178 177 168 160 164 175 172 165 170 172 181 189 181 183 174 151 178 169 97 163 149 87 161 129 72 16 95 170 223 195 174 147 61 234 197 67 265 231 194 206 226 216 223 231 199 182 226 230 200 179 187 192 185 179 179 181 180 179 176 164 157 156 155
153 149 118 139 147 151 152 146 146 171 184 205 202 182 124 110 135 25 38 137 155 165 180 163 153 155 160 160 152 156 179 171 161 176 189 174 170 194 196 180 151 156 138 86 128 152 113 261 142 109 45 184 185 212 210 184 169 175 180 178 184 190 273 240 222 223 238 232 230 225 225 223 201 195 195 194 194 189 180 177 179 178 177 172 162 163 166 162
162 131 122 157 151 149 150 146 160 183 191 206 187 144 134 125 138 142 30 18 74 47 198 156 154 155 149 155 157 153 156 158 168 183 171 174 188 219 208 182 151 139 134 127 166 168 169 137 131 137 173 190 174 27 341 311 175 197 196 190 193 179 155 204 211 176 244 258 243 245 259 248 112 63 233 194 195 191 179 172 173 174 173 168 163 167 167 160
157 131 131 173 162 158 161 158 169 190 200 194 145 98 127 139 142 151 147 61 59 43 37 118 133 150 152 156 159 156 152 152 175 185 179 195 201 201 215 173 148 147 150 144 140 149 67 96 116 132 165 185 93 51 31 313 288 273 253 219 205 194 191 211 215 180 166 209 348 331 274 264 98 50 11 35 14 195 172 167 167 170 169 163 161 163 161 159
134 116 82 166 170 172 178 163 172 195 195 161 99 83 111 138 141 150 166 177 140 110 131 112 119 155 164 149 149 160 163 159 176 185 187 192 186 181 278 149 144 154 160 136 130 158 101 113 121 111 95 108 146 128 120 108 264 255 242 228 217 204 197 210 237 183 162 170 175 218 243 245 113 71 20 37 19 356 176 169 167 167 164 160 159 159 157 155
106 108 55 130 173 188 195 170 180 189 174 149 128 116 99 107 134 156 178 181 167 160 152 133 140 157 149 140 150 166 169 169 193 194 184 178 164 20 348 159 154 164 176 164 164 179 183 152 136 132 142 174 189 192 194 185 213 231 223 206 204 183 101 96 198 262 212 194 192 214 245 246 129 101 85 116 131 159 195 176 169 163 159 157 156 154 153 153
103 102 44 68 166 201 212 182 188 182 168 157 152 151 139 111 93 148 171 155 105 147 142 129 130 110 120 129 129 163 171 152 179 183 139 148 156 17 350 180 175 178 181 63 135 162 182 174 160 166 171 179 195 207 205 188 183 212 213 186 190 191 174 172 209 229 223 199 186 215 244 239 120 137 165 151 155 171 183 183 175 162 156 156 155 158 160 163
111 113 126 85 68 235 243 297 241 181 169 162 161 163 160 149 116 9 97 134 115 77 97 108 135 108 126 145 137 164 181 89 43 169 160 147 137 50 360 235 176 166 34 69 138 148 157 189 191 199 201 199 208 209 179 151 150 186 201 195 195 199 193 189 209 218 219 205 193 220 238 245 218 175 178 182 179 181 183 182 174 160 158 159 159 163 165 168
69 104 146 122 119 201 226 239 210 184 171 169 167 167 166 153 139 135 339 85 174 155 76 80 157 153 159 161 156 173 180 150 82 158 151 132 103 70 41 38 84 59 25 132 166 147 130 201 204 213 225 221 210 164 153 156 174 197 202 196 193 192 188 189 213 222 215 204 227 229 226 241 244 199 181 195 190 185 186 185 182 171 165 163 157 159 165 169
40 59 359 334 175 178 195 203 196 183 173 173 169 166 167 156 151 164 166 67 168 190 143 131 195 192 172 164 159 161 162 145 138 155 136 128 130 114 82 45 71 72 35 139 182 140 167 207 204 206 227 228 117 93 166 179 195 207 203 191 184 181 182 190 214 226 214 206 238 236 213 226 242 221 192 191 185 191 194 188 184 172 162 157 154 160 170 176
51 80 348 333 8 134 164 184 187 184 178 177 174 175 176 168 163 163 143 131 170 210 228 187 186 190 178 169 160 151 160 168 178 183 157 143 147 135 126 131 162 183 103 139 173 277 197 210 200 196 222 224 117 88 191 195 200 206 199 191 182 178 187 197 212 224 220 219 236 243 225 229 241 233 215 191 176 191 190 173 173 172 164 160 164 172 181 183
59 59 358 46 64 74 135 169 180 187 186 185 181 179 184 180 169 151 132 153 172 181 208 195 172 168 172 175 172 172 183 186 180 173 156 140 149 171 168 165 143 126 74 148 152 290 246 213 170 168 217 221 119 93 160 199 210 205 182 180 178 179 194 207 218 224 223 229 239 249 263 261 245 222 210 145 130 145 157 166 181 183 173 170 176 184 188 185
64 6 338 101 86 47 131 166 179 187 187 192 190 176 184 189 174 145 127 100 158 169 184 171 147 131 130 180 190 188 180 168 129 159 161 154 166 180 176 158 143 141 156 166 152 143 198 207 90 133 206 213 118 133 141 92 23 295 183 182 181 184 197 207 217 220 215 223 236 242 249 256 235 176 145 104 125 152 167 178 189 191 184 182 186 191 191 186
74 18 343 29 84 38 40 158 176 188 189 196 193 173 178 187 169 146 139 84 34 121 159 149 136 121 138 186 195 160 119 90 69 122 149 132 109 120 102 138 153 154 163 169 162 153 173 177 134 164 202 212 42 123 132 105 69 246 223 201 191 195 205 206 214 221 215 216 225 227 235 245 198 154 162 160 163 178 187 188 192 194 192 190 192 193 191 187